Date String (YYYY-MM-DD hh:mm:ss) UTC,Instrument flags,absolute air pressure of the measurement (hPa),sample flow rate (lpm),inlet stack bypass flow (lpm),air temperature of the measurement (°C),ambient temperature measured by the external sensor (°C),aerosol sample conditioner tube jacket temperature (°C),OPC LED temperature (°C),internal box temperature (°C),relative humidity of the measurement (%),span deviation,mass concentration of particles derived from Lorenz-Mie calculation of OPC scattering (μg/m³),mass concentration of particles derived from Lorenz-Mie calculation of OPC scattering (μg/m³),mass concentration of particles derived from Lorenz-Mie calculation of OPC scattering (μg/m³)
DateTimeUTC,F1_M11,P_M11,Q1_M11,Q2_M11,T1_M11,T2_M11,T3_M11,T4_M11,T5_M11,U1_M11,ZSPAN_M11,X2_M11,X0_M11,X1_M11
2023-10-30 16:00:00,SystemResetWarning,0835.5,4.99,000.00,021.7,020.6,000.0,029.9,023.2,10.2,0000.0,0004.92,0008.23,0004.55
2023-10-30 16:01:00,SystemResetWarning,0835.6,4.99,000.00,021.7,020.6,000.0,029.9,023.2,10.3,0000.0,0004.97,0008.25,0004.59
2023-10-30 16:02:00,SystemResetWarning,0835.5,5.00,000.00,021.7,020.6,000.0,029.9,023.2,10.2,0000.0,0005.03,0008.04,0004.66
2023-10-30 16:03:00,SystemResetWarning,0835.5,5.01,000.00,021.7,020.6,000.0,029.9,023.2,10.4,0000.0,0005.08,0007.96,0004.70
2023-10-30 16:04:00,SystemResetWarning,0835.5,5.01,000.00,021.7,020.6,000.0,029.9,023.3,10.4,0000.0,0005.12,0007.96,0004.72
2023-10-30 16:05:00,SystemResetWarning,0835.5,5.00,000.00,021.7,020.6,000.0,029.9,023.3,10.3,0000.0,0005.15,0007.96,0004.74
2023-10-30 16:06:00,SystemResetWarning,0835.6,4.99,000.00,021.7,020.6,000.0,029.9,023.3,10.3,0000.0,0005.15,0007.97,0004.74
2023-10-30 16:07:00,SystemResetWarning,0835.5,5.00,000.00,021.7,020.7,000.0,030.0,023.3,10.5,0000.0,0005.12,0008.13,0004.71
2023-10-30 16:08:00,SystemResetWarning,0835.5,5.00,000.00,021.7,020.7,000.0,030.0,023.3,10.5,0000.0,0005.14,0008.38,0004.70
2023-10-30 16:09:00,SystemResetWarning,0835.6,5.00,000.00,021.7,020.7,000.0,030.0,023.3,10.3,0000.0,0005.15,0008.44,0004.68
2023-10-30 16:10:00,SystemResetWarning,0835.5,5.00,000.00,021.8,020.7,000.0,030.0,023.3,10.4,0000.0,0005.13,0008.38,0004.66
2023-10-30 16:11:00,SystemResetWarning,0835.5,5.00,000.00,021.8,020.7,000.0,030.0,023.4,10.5,0000.0,0005.08,0008.27,0004.62
2023-10-30 16:12:00,SystemResetWarning,0835.5,5.00,000.00,021.8,020.8,000.0,030.0,023.4,10.4,0000.0,0005.02,0008.22,0004.57
2023-10-30 16:13:00,SystemResetWarning,0835.5,5.00,000.00,021.8,020.8,000.0,030.0,023.5,10.4,0000.4,0004.99,0008.30,0004.53
2023-10-30 16:14:00,SystemResetWarning,0835.5,4.99,000.00,021.8,020.8,000.0,030.0,023.5,10.4,0001.3,0004.95,0008.37,0004.50
2023-10-30 16:15:00,SystemResetWarning,0835.5,5.00,000.00,021.8,020.8,000.0,030.0,023.5,10.6,0000.0,0004.90,0008.30,0004.45
2023-10-30 16:16:00,SystemResetWarning,0835.5,5.00,000.00,021.8,020.8,000.0,030.1,023.5,10.5,0000.0,0004.86,0008.24,0004.42
2023-10-30 16:17:00,SystemResetWarning,0835.4,5.00,000.00,021.9,020.8,000.0,030.1,023.5,10.4,0000.4,0004.86,0008.24,0004.41
2023-10-30 16:18:00,SystemResetWarning,0835.3,4.99,000.00,021.9,020.8,000.0,030.1,023.5,10.2,0001.8,0004.87,0008.12,0004.42
2023-10-30 16:19:00,SystemResetWarning,0835.3,5.00,000.00,021.9,020.8,000.0,030.1,023.5,10.3,0001.8,0004.83,0007.78,0004.41
2023-10-30 16:20:00,SystemResetWarning,0835.3,5.01,000.00,021.9,020.9,000.0,030.1,023.6,10.2,0001.8,0004.80,0007.62,0004.40
2023-10-30 16:21:00,SystemResetWarning,0835.3,5.01,000.00,021.9,020.9,000.0,030.1,023.6,10.2,0002.5,0004.77,0007.57,0004.39
2023-10-30 16:22:00,SystemResetWarning,0835.4,5.00,000.00,021.9,020.9,000.0,030.1,023.6,10.2,0003.4,0004.79,0007.62,0004.40
2023-10-30 16:23:00,SystemResetWarning,0835.3,5.00,000.00,021.9,020.9,000.0,030.1,023.6,10.3,0003.1,0004.80,0007.61,0004.40
2023-10-30 16:24:00,SystemResetWarning,0835.3,5.00,000.00,022.0,020.9,000.0,030.2,023.6,10.2,0002.9,0004.79,0007.51,0004.41
2023-10-30 16:25:00,SystemResetWarning,0835.3,5.00,000.00,022.0,020.9,000.0,030.2,023.7,10.2,0003.9,0004.80,0007.64,0004.42
2023-10-30 16:26:00,SystemResetWarning,0835.2,5.00,000.00,022.0,021.0,000.0,030.2,023.7,10.3,0003.5,0004.86,0007.89,0004.44
2023-10-30 16:27:00,SystemResetWarning,0835.2,5.00,000.00,022.0,021.0,000.0,030.2,023.7,10.2,0003.3,0004.90,0008.04,0004.45
2023-10-30 16:28:00,SystemResetWarning,0835.2,4.99,000.00,022.0,021.0,000.0,030.2,023.7,10.1,0003.1,0004.89,0008.28,0004.45
2023-10-30 16:29:00,SystemResetWarning,0835.2,5.00,000.00,022.0,021.0,000.0,030.2,023.8,10.1,0002.7,0004.91,0008.50,0004.45
2023-10-30 16:30:00,SystemResetWarning,0835.2,5.00,000.00,022.1,021.0,000.0,030.2,023.8,10.2,0002.4,0004.94,0008.63,0004.45
2023-10-30 16:31:00,SystemResetWarning,0835.3,5.00,000.00,022.1,021.1,000.0,030.3,023.8,10.1,0001.7,0004.97,0008.75,0004.44
2023-10-30 16:32:00,SystemResetWarning,0835.2,5.01,000.00,022.1,021.0,000.0,030.3,023.7,10.0,0001.1,0004.97,0009.02,0004.44
2023-10-30 16:33:00,SystemResetWarning,0835.3,5.01,000.00,022.1,021.0,000.0,030.3,023.7,10.2,0001.4,0004.96,0009.43,0004.42
2023-10-30 16:34:00,SystemResetWarning,0835.3,5.01,000.00,022.1,021.0,000.0,030.3,023.7,10.2,0000.8,0004.95,0009.48,0004.41
2023-10-30 16:35:00,SystemResetWarning,0835.2,5.00,000.00,022.1,021.1,000.0,030.3,023.8,10.1,0000.4,0004.95,0009.58,0004.38
2023-10-30 16:36:00,SystemResetWarning,0835.3,5.00,000.00,022.1,021.1,000.0,030.3,023.8,10.1,0000.0,0004.91,0009.60,0004.36
2023-10-30 16:37:00,SystemResetWarning,0835.3,5.00,000.00,022.1,021.1,000.0,030.3,023.8,10.0,0000.0,0004.87,0009.58,0004.34
2023-10-30 16:38:00,SystemResetWarning,0835.2,5.00,000.00,022.2,021.1,000.0,030.4,023.8,10.3,0000.0,0004.84,0009.77,0004.31
2023-10-30 16:39:00,SystemResetWarning,0835.1,4.99,000.00,022.2,021.1,000.0,030.4,023.9,10.4,0000.0,0004.81,0009.58,0004.29
2023-10-30 16:40:00,SystemResetWarning,0835.1,5.00,000.00,022.2,021.2,000.0,030.4,023.9,10.3,0000.0,0004.77,0009.39,0004.26
2023-10-30 16:41:00,SystemResetWarning,0835.1,5.00,000.00,022.2,021.2,000.0,030.4,023.9,10.4,0000.0,0004.79,0009.98,0004.25
2023-10-30 16:42:00,SystemResetWarning,0835.2,5.00,000.00,022.2,021.2,000.0,030.4,023.9,10.3,0000.0,0004.77,0010.93,0004.24
2023-10-30 16:43:00,SystemResetWarning,0835.2,5.00,000.00,022.2,021.2,000.0,030.4,023.9,10.4,0000.0,0004.76,0011.89,0004.23
2023-10-30 16:44:00,SystemResetWarning,0835.2,5.01,000.00,022.2,021.2,000.0,030.4,024.0,10.5,0000.0,0004.79,0011.79,0004.23
2023-10-30 16:45:00,SystemResetWarning,0835.2,5.00,000.00,022.3,021.3,000.0,030.4,024.0,10.4,0000.0,0004.81,0011.88,0004.24
2023-10-30 16:46:00,SystemResetWarning,0835.2,5.00,000.00,022.3,021.3,000.0,030.5,024.0,10.3,0000.0,0004.82,0012.22,0004.24
2023-10-30 16:47:00,SystemResetWarning,0835.1,5.00,000.00,022.3,021.3,000.0,030.5,024.0,10.1,0000.0,0004.84,0012.11,0004.25
2023-10-30 16:48:00,SystemResetWarning,0835.1,5.00,000.00,022.3,021.2,000.0,030.5,023.9,10.3,0000.0,0004.90,0012.52,0004.26
2023-10-30 16:49:00,SystemResetWarning,0835.1,5.00,000.00,022.3,021.2,000.0,030.5,023.9,10.3,0000.0,0004.92,0012.40,0004.27
2023-10-30 16:50:00,SystemResetWarning,0835.1,5.00,000.00,022.3,021.2,000.0,030.5,024.0,10.0,0000.0,0004.94,0012.46,0004.29
2023-10-30 16:51:00,SystemResetWarning,0835.2,5.00,000.00,022.3,021.3,000.0,030.5,024.0,10.2,0000.0,0004.95,0012.48,0004.30
2023-10-30 16:52:00,SystemResetWarning,0835.2,5.00,000.00,022.3,021.3,000.0,030.5,024.0,10.0,0000.0,0004.93,0011.89,0004.30
2023-10-30 16:53:00,SystemResetWarning,0835.2,5.00,000.00,022.3,021.3,000.0,030.6,024.1,10.5,0000.0,0004.92,0010.98,0004.30
2023-10-30 16:54:00,SystemResetWarning,0835.2,5.01,000.00,022.4,021.4,000.0,030.6,024.1,10.3,0000.0,0004.95,0010.26,0004.29
2023-10-30 16:55:00,SystemResetWarning,0835.2,5.01,000.00,022.4,021.4,000.0,030.6,024.1,10.5,0000.0,0004.94,0010.12,0004.28
2023-10-30 16:56:00,SystemResetWarning,0835.2,5.00,000.00,022.4,021.4,000.0,030.6,024.1,10.7,0000.0,0004.88,0010.05,0004.25
2023-10-30 16:57:00,SystemResetWarning,0835.1,4.99,000.00,022.4,021.5,000.0,030.6,024.1,10.5,0000.0,0004.86,0009.62,0004.23
2023-10-30 16:58:00,SystemResetWarning,0835.1,5.00,000.00,022.4,021.6,000.0,030.6,024.1,10.4,0000.0,0004.82,0009.56,0004.21
2023-10-30 16:59:00,SystemResetWarning,0835.2,4.99,000.00,022.4,021.7,000.0,030.6,024.2,10.5,0000.0,0004.73,0008.92,0004.18
